Home > Time Zones > World Clock > Weather > Italy > Parma > Past weeks

Flag for Italy Weather past 2 weeks in Parma, Italy

Now
43 °F

Fog.


Feels Like: 43 °F
Forecast: 43 / 61 °F
Wind: 2 mph from North

Location: Parma

Current Time: Oct 26, 2014 at 8:46:43 AM

Latest Report: Oct 26, 2014 at 7:00 AM


Visibility: 3 mi

Pressure: 30.24 "Hg

Humidity: 93%

Dew point: 41 °F

Location of ParmaLocation

Historic Weather in Parma — Graph

°F

Parma temperature yesterday

Maximum temperature yesterday: 63 °F (at 1:50 PM)
Minimum temperature yesterday: 43 °F (at 6:00 AM)
Average temperature yesterday: 54 °F

Past Weeks' High & Low Weather Summary

 TemperatureHumidityPressure
High75 °F (Oct 17, 2:50 PM)100% (Oct 11, 8:50 AM)30.30 "Hg (Oct 11, 8:50 AM)
Low43 °F (Oct 25, 6:00 AM)19% (Oct 22, 2:50 PM)29.59 "Hg (Oct 21, 11:50 PM)
Average63 °F78%29.98 "Hg
* Reported Oct 11 8:50 AM — Oct 26 7:00 AM, Parma, Weather by CustomWeather, © 2014

Note: Actual official high and low records may vary slightly from our data, if they occured in-between our weather recording intervals... More about our weather records

Advertising

Parma weather history for previous 24 hours

 ConditionsComfort  
Time TempWeatherWind HumidityBarometerVisibility
7:00 AM
Oct 26
43 °FFog.2 mph93%30.24 "Hg3 mi
11:50 PM
Oct 25
50 °FClear.3 mph88%30.21 "Hg10 mi
10:50 PM48 °FClear.5 mph87%30.18 "Hg10 mi
9:50 PM50 °FClear.1 mph88%30.18 "Hg10 mi
8:50 PM52 °FClear.1 mph82%30.15 "Hg10 mi
7:50 PM55 °FClear.3 mph77%30.15 "Hg10 mi
6:50 PM57 °FSunny.3 mph67%30.15 "Hg10 mi
5:50 PM61 °FSunny.5 mph63%30.12 "Hg10 mi
4:50 PM63 °FScattered clouds.6 mph64%30.12 "HgN/A
3:50 PM63 °FScattered clouds.6 mph56%30.15 "HgN/A
2:50 PM63 °FScattered clouds.5 mph64%30.15 "HgN/A
1:50 PM63 °FPassing clouds.7 mph64%30.15 "HgN/A
12:50 PM61 °FPassing clouds.8 mph63%30.15 "HgN/A
11:50 AM57 °FSunny.3 mph77%30.18 "Hg10 mi
10:50 AM55 °FSunny.7 mph77%30.15 "Hg10 mi
9:50 AM52 °FSunny.No wind82%30.15 "Hg10 mi
8:50 AM45 °FPassing clouds.3 mph93%30.12 "HgN/A
Weather by CustomWeather, © 2014

See weather overviewHow to use our weather pages